Aeroporto :
LOGIN :

Iscrizione | Disclaimer

   EN    FR    IT 

 










Sommario :    VFR   VFR Marginale   IFR   IFR Intensivo   IFR Molto Intensivo
Visibilità : 
Base nubi : 
>= 8 km
>= 3000ft
5 / 8 km
1000 / 3000 ft
1500m / 5 km
500 / 1000 ft
800 / 1500m
200 / 500 ft
< 800m
< 200 ft
Simboli :   Temporali  Nebbia  Neve Forte  Precipitazioni Forti  Vento > 20 kt
SIGMETs :   Varie  Temporali  Ghiacco  Turbolenza  Onda orograficha  Ceneri Vulcaniche






- Altitudine del aeroporto : 245 ft


ETHS - Fassberg

ULTIMO METAR :
  • 301620Z 21008KT 9999 BKN050 BKN070 02/M02 Q1017 BLU

METARs OBSOLETI :
  • 301600Z 21008KT 9999 BKN050 BKN070 02/M02 Q1018 BLU FCST CANCEL
  • 301520Z 21006KT 9999 BKN050 BKN090 02/M02 Q1019 BLU BLU
  • 301420Z 19006KT 9999 BKN050 BKN090 02/M02 Q1019 BLU BLU

TAF TAF ETHS
Valido dal 30 a 15 ore il 01 a 00 ore UTC


301420Z 3015/3024 21008KT 9999 NSW FEW020 BKN060
BECMG 3017/3019 22008KT 5000 -RADZ OVC010
TEMPO 3019/3024 22012KT 3000 RADZ OVC005



MetMap, La meteo Aeronautica in un colpo d'occhio ! - Copyright ORBIFLY Dicembre 2007 - Disclaimer

ORBIFLY MET'MAP TEAM :

Programmazione e sviluppo : Alexandra Zaïnal
Concezione : Baudouin d'Aumeries
Aiuto per la programmazione : Marc-Olivier Méhu
Supporto tecnico e logistico : Manuel Goepfert
Aiuto per la traduzione : Arnaldo La Scala

Contatto : metmap@orbifly.com




FONTI E CREDITI :

   NOAA